This demonstration page uses our WeatherBlox Daily Observations layout. Learn more.

Left ArrowRight Arrow

40.97296, -117.73568

Hourly Observations for August 4, 2020

Temp ( °F °C ) Dew Point ( °F °C ) Humidity (%) Winds ( mph kmh ) Pressure ( in mb ) Visibility ( mi km ) Precip ( " mm )
12:56 am 00:56 Clear 62 16.7 26 -3.3 25 25 NNW 5 7 29.92 1013 10 16 0.00 0.00
1:56 am 01:56 Clear 72 22.2 32 0 23 23 N 5 7 29.91 1013 10 16 0.00 0.00
2:56 am 02:56 Clear 70 21.1 32 0 25 25 Calm 29.91 1013 10 16 0.00 0.00
3:56 am 03:56 Clear 63 17.2 32 0 31 31 NW 3 6 29.92 1013 10 16 0.00 0.00
4:56 am 04:56 Clear 54 12.2 29 -1.7 38 38 S 6 9 29.95 1014 10 16 0.00 0.00
5:56 am 05:56 Sunny 52 11.1 31 -0.6 45 45 E 6 9 29.96 1015 10 16 0.00 0.00
6:56 am 06:56 Sunny 68 20 35 1.7 30 30 VRB 5 7 29.95 1014 10 16 0.00 0.00
7:56 am 07:56 Sunny 71 21.7 34 1.1 26 26 E 5 7 29.96 1015 10 16 0.00 0.00
8:56 am 08:56 Sunny 78 25.6 36 2.2 22 22 NE 14 22 29.96 1015 10 16 0.00 0.00
9:56 am 09:56 Sunny 84 28.9 35 1.7 17 17 ENE 12 19 29.94 1014 10 16 0.00 0.00
10:56 am 10:56 Sunny 88 31.1 34 1.1 15 15 NNE 16 26 29.93 1014 10 16 0.00 0.00
11:56 am 11:56 Sunny 93 33.9 34 1.1 12 12 N 9 15 29.90 1013 10 16 0.00 0.00
12:56 pm 12:56 Sunny 95 35 32 0 11 11 undefined N/A 29.89 1012 10 16 0.00 0.00
1:56 pm 13:56 Sunny 96 35.6 29 -1.7 9 9 VRB 3 6 29.85 1011 10 16 0.00 0.00
2:56 pm 14:56 Sunny 97 36.1 29 -1.7 9 9 WNW 12 19 29.82 1010 10 16 0.00 0.00
3:56 pm 15:56 Sunny 99 37.2 27 -2.8 8 8 undefined N/A 29.81 1010 10 16 0.00 0.00
4:56 pm 16:56 Mostly Sunny 96 35.6 26 -3.3 8 8 SE 10 17 29.81 1010 10 16 0.00 0.00
5:56 pm 17:56 Sunny 97 36.1 25 -3.9 7 7 NNW 6 9 29.80 1009 10 16 0.00 0.00
6:56 pm 18:56 Sunny 96 35.6 25 -3.9 8 8 N 10 17 29.75 1008 10 16 0.00 0.00
7:56 pm 19:56 Sunny 89 31.7 28 -2.2 11 11 NNE 5 7 29.76 1008 10 16 0.00 0.00
8:56 pm 20:56 Clear 84 28.9 27 -2.8 12 12 ENE 7 11 29.76 1008 10 16 0.00 0.00
9:56 pm 21:56 Clear 71 21.7 26 -3.3 19 19 W 7 11 29.78 1008 10 16 0.00 0.00
10:56 pm 22:56 Clear 76 24.4 28 -2.2 17 17 NE 10 17 29.77 1008 10 16 0.00 0.00
11:56 pm 23:56 Clear 78 25.6 31 -0.6 18 18 ENE 21 33 29.76 1008 10 16 0.00 0.00

Powered by AerisWeather